Weather History for KPNA - October, 2013

Change the Weather History Date:

Wednesday, October 2, 2013

  Actual Average (KBPI) Record (KBPI)
Temperature  
Mean Temperature 42 °F 44 °F  
Max Temperature 53 °F 61 °F 77 °F (2010)
Min Temperature 32 °F 26 °F 10 °F (2009)
Degree Days  
Heating Degree Days 22 21  
Month to date heating degree days 42  
Since 1 July heating degree days 793  
Cooling Degree Days 0 0  
Month to date cooling degree days 0  
Year to date cooling degree days 35  
Moisture  
Dew Point 33 °F    
Average Humidity 78    
Maximum Humidity 100    
Minimum Humidity 41    
Precipitation  
Precipitation 0.00 in 0.03 in 0.44 in (1986)
Month to date precipitation 0.05  
Year to date precipitation 5.49  
Sea Level Pressure  
Sea Level Pressure 30.05 in    
Wind  
Wind Speed 6 mph (WNW)    
Max Wind Speed 21 mph    
Max Gust Speed 26 mph    
Visibility 10 miles    
Events Rain    
T = Trace of Precipitation, MM = Missing Value Source: NWS Daily Summary

Daily Weather History Graph

Daily Weather History Graph

Search for Another Location

Airport or City:

Trip Planner

Search our weather history database for the weather conditions in past years. The results will help you decide how hot, cold, wet, or windy it might be!

Date:

Astronomy

Oct. 02, 2013 Rise Set
Actual Time 7:17 AM MDT 6:58 PM MDT
Civil Twilight 6:49 AM MDT 7:26 PM MDT
Nautical Twilight 6:16 AM MDT 7:59 PM MDT
Astronomical Twilight 5:43 AM MDT 8:32 PM MDT
Moon 4:51 AM MDT (10/2) 5:37 PM MDT (10/2)
Length of Visible Light 12h 36m
Length of Day
11h 40m
Waning Crescent, 6% of the Moon is Illuminated
Oct 2
Waning Crescent
Oct 4
New
Oct 11
First Quarter
Oct 18
Full
Oct 26
Last Quarter

Hourly Weather History & Observations

Time (MDT) Temp. Windchill Dew Point Humidity Pressure Visibility Wind Dir Wind Speed Gust Speed Precip Events Conditions
12:15 AM 33.8 °F 27.0 °F 30.2 °F 87% 30.07 in 10.0 mi West 8.1 mph - N/A   Clear
12:35 AM 33.8 °F 29.6 °F 30.2 °F 87% 30.07 in 10.0 mi WNW 4.6 mph - N/A   Clear
12:55 AM 33.8 °F 27.7 °F 30.2 °F 87% 30.08 in 10.0 mi NW 6.9 mph - N/A   Clear
1:15 AM 32.0 °F 24.8 °F 30.2 °F 93% 30.08 in 10.0 mi WNW 8.1 mph - N/A   Clear
1:35 AM 32.0 °F 27.5 °F 30.2 °F 93% 30.08 in 10.0 mi WNW 4.6 mph - N/A   Clear
1:55 AM 32.0 °F 28.7 °F 30.2 °F 93% 30.08 in 10.0 mi NW 3.5 mph - N/A   Clear
2:15 AM 32.0 °F 26.4 °F 30.2 °F 93% 30.08 in 10.0 mi West 5.8 mph - N/A   Clear
2:35 AM 32.0 °F - 32.0 °F 100% 30.08 in 10.0 mi Calm Calm - N/A   Clear
2:55 AM 32.0 °F 25.6 °F 32.0 °F 100% 30.08 in 10.0 mi NW 6.9 mph - N/A   Clear
3:15 AM 32.0 °F 28.7 °F 32.0 °F 100% 30.08 in 10.0 mi WNW 3.5 mph - N/A   Scattered Clouds
3:35 AM 32.0 °F 28.7 °F 32.0 °F 100% 30.08 in 10.0 mi NW 3.5 mph - N/A   Scattered Clouds
3:55 AM 33.8 °F 27.7 °F 32.0 °F 93% 30.08 in 10.0 mi NW 6.9 mph - N/A   Scattered Clouds
4:15 AM 32.0 °F 28.7 °F 32.0 °F 100% 30.09 in 10.0 mi West 3.5 mph - N/A   Scattered Clouds
4:35 AM 32.0 °F 28.7 °F 32.0 °F 100% 30.09 in 10.0 mi NW 3.5 mph - N/A   Scattered Clouds
4:55 AM 33.8 °F 27.0 °F 32.0 °F 93% 30.09 in 10.0 mi WNW 8.1 mph - N/A   Scattered Clouds
5:15 AM 35.6 °F 31.7 °F 33.8 °F 93% 30.09 in 10.0 mi WNW 4.6 mph - N/A   Scattered Clouds
5:35 AM 33.8 °F 27.7 °F 32.0 °F 93% 30.09 in 10.0 mi WSW 6.9 mph - N/A   Scattered Clouds
5:55 AM 33.8 °F 27.7 °F 32.0 °F 93% 30.09 in 10.0 mi West 6.9 mph - N/A   Clear
6:15 AM 33.8 °F 27.7 °F 32.0 °F 93% 30.09 in 10.0 mi West 6.9 mph - N/A   Clear
6:35 AM 33.8 °F 30.8 °F 32.0 °F 93% 30.10 in 10.0 mi NW 3.5 mph - N/A   Mostly Cloudy
6:55 AM 33.8 °F 29.6 °F 32.0 °F 93% 30.10 in 10.0 mi WNW 4.6 mph - N/A   Mostly Cloudy
7:15 AM 33.8 °F 28.6 °F 32.0 °F 93% 30.11 in 10.0 mi West 5.8 mph - N/A   Mostly Cloudy
7:35 AM 33.8 °F 29.6 °F 32.0 °F 93% 30.11 in 10.0 mi West 4.6 mph - N/A   Mostly Cloudy
7:55 AM 33.8 °F - 32.0 °F 93% 30.11 in 10.0 mi Calm Calm - N/A   Scattered Clouds
8:15 AM 35.6 °F 31.7 °F 33.8 °F 93% 30.11 in 10.0 mi NW 4.6 mph - N/A   Scattered Clouds
8:35 AM 37.4 °F 32.1 °F 33.8 °F 87% 30.11 in 10.0 mi WNW 6.9 mph - N/A   Scattered Clouds
8:55 AM 39.2 °F - 35.6 °F 87% 30.11 in 10.0 mi Calm Calm - N/A   Scattered Clouds
9:15 AM 42.8 °F 40.1 °F 33.8 °F 70% 30.11 in 10.0 mi West 4.6 mph - N/A   Scattered Clouds
9:35 AM 46.4 °F 43.5 °F 33.8 °F 62% 30.11 in 10.0 mi WNW 5.8 mph - N/A   Scattered Clouds
9:55 AM 50.0 °F - 32.0 °F 50% 30.11 in 10.0 mi WNW 8.1 mph - N/A   Mostly Cloudy
10:15 AM 50.0 °F - 32.0 °F 50% 30.11 in 10.0 mi WNW 6.9 mph - N/A   Overcast
10:35 AM 50.0 °F - 30.2 °F 47% 30.11 in 10.0 mi NW 5.8 mph - N/A   Overcast
10:55 AM 50.0 °F - 30.2 °F 47% 30.10 in 10.0 mi NW 3.5 mph - N/A   Mostly Cloudy
11:15 AM 50.0 °F - 30.2 °F 47% 30.09 in 10.0 mi Calm Calm - N/A   Mostly Cloudy
11:35 AM 51.8 °F - 30.2 °F 44% 30.09 in 10.0 mi Calm Calm - N/A   Scattered Clouds
11:55 AM 51.8 °F - 30.2 °F 44% 30.08 in 10.0 mi Calm Calm - N/A   Mostly Cloudy
12:15 PM 51.8 °F - 30.2 °F 44% 30.08 in 10.0 mi Calm Calm - N/A   Scattered Clouds
12:35 PM 51.8 °F - 30.2 °F 44% 30.07 in 10.0 mi Calm Calm - N/A   Scattered Clouds
12:55 PM 51.8 °F - 30.2 °F 44% 30.06 in 10.0 mi Calm Calm - N/A   Mostly Cloudy
1:15 PM 51.8 °F - 30.2 °F 44% 30.05 in 10.0 mi Calm Calm - N/A   Overcast
1:35 PM 53.6 °F - 30.2 °F 41% 30.05 in 10.0 mi SSE 3.5 mph - N/A   Overcast
1:55 PM 53.6 °F - 32.0 °F 44% 30.03 in 10.0 mi SSE 4.6 mph - N/A   Mostly Cloudy
2:15 PM 53.6 °F - 30.2 °F 41% 30.01 in 10.0 mi Calm Calm - N/A   Overcast
2:35 PM 53.6 °F - 32.0 °F 44% 30.01 in 10.0 mi East 5.8 mph - N/A   Mostly Cloudy
2:55 PM 53.6 °F - 30.2 °F 41% 30.00 in 10.0 mi East 4.6 mph - N/A   Mostly Cloudy
3:15 PM 53.6 °F - 30.2 °F 41% 29.99 in 10.0 mi SSE 6.9 mph - N/A   Overcast
3:35 PM 53.6 °F - 30.2 °F 41% 29.99 in 10.0 mi SE 4.6 mph - N/A   Overcast
3:55 PM 51.8 °F - 32.0 °F 47% 29.99 in 10.0 mi Calm Calm - N/A Rain Light Rain
4:15 PM 51.8 °F - 32.0 °F 47% 29.98 in 10.0 mi NNW 8.1 mph - N/A   Light Drizzle
4:35 PM 51.8 °F - 33.8 °F 50% 29.97 in 10.0 mi NNW 5.8 mph - N/A   Overcast
4:55 PM 48.2 °F - 35.6 °F 62% 29.97 in 10.0 mi NNW 12.7 mph - N/A   Overcast
5:15 PM 46.4 °F 40.7 °F 35.6 °F 66% 29.96 in 10.0 mi NW 12.7 mph - N/A   Overcast
5:35 PM 46.4 °F 39.8 °F 37.4 °F 71% 29.95 in 10.0 mi NW 16.1 mph - N/A   Overcast
5:55 PM 44.6 °F 37.2 °F 35.6 °F 71% 29.97 in 10.0 mi WNW 17.3 mph 21.9 mph N/A   Overcast
6:15 PM 42.8 °F 34.3 °F 37.4 °F 81% 29.97 in 10.0 mi NW 19.6 mph 25.3 mph N/A   Drizzle
6:35 PM 41.0 °F 31.6 °F 39.2 °F 93% 29.98 in 10.0 mi WNW 20.7 mph 26.5 mph N/A Rain Rain
6:55 PM 39.2 °F 30.2 °F 37.4 °F 93% 30.01 in 5.0 mi WNW 17.3 mph 24.2 mph N/A Rain Rain
7:15 PM 37.4 °F 30.3 °F 37.4 °F 100% 30.01 in 7.0 mi NW 10.4 mph 21.9 mph N/A Rain Rain
7:35 PM 37.4 °F 30.8 °F 37.4 °F 100% 30.00 in 10.0 mi NW 9.2 mph - N/A Rain Light Rain
7:55 PM 37.4 °F 31.4 °F 37.4 °F 100% 29.99 in 10.0 mi NW 8.1 mph - N/A Rain Light Rain
8:15 PM 37.4 °F 30.8 °F 37.4 °F 100% 29.98 in 10.0 mi WNW 9.2 mph - N/A   Overcast
8:35 PM 39.2 °F 33.6 °F 37.4 °F 93% 29.99 in 10.0 mi WNW 8.1 mph - N/A Rain Light Rain
8:55 PM 37.4 °F 27.5 °F 35.6 °F 93% 30.01 in 10.0 mi NW 18.4 mph 26.5 mph N/A Rain Heavy Rain
9:15 PM 35.6 °F 24.5 °F 35.6 °F 100% 30.02 in 2.5 mi NW 20.7 mph 25.3 mph N/A Rain Rain
9:35 PM 35.6 °F 29.9 °F 35.6 °F 100% 29.99 in 10.0 mi NNE 6.9 mph 17.3 mph N/A   Overcast
9:55 PM 35.6 °F 30.7 °F 35.6 °F 100% 30.00 in 10.0 mi East 5.8 mph - N/A   Overcast
10:15 PM 37.4 °F 33.8 °F 35.6 °F 93% 30.01 in 10.0 mi SSW 4.6 mph - N/A Rain Rain
10:35 PM 37.4 °F 33.8 °F 35.6 °F 93% 30.01 in 10.0 mi SSW 4.6 mph - N/A Rain Light Rain
10:55 PM 37.4 °F 31.4 °F 35.6 °F 93% 30.01 in 10.0 mi SSW 8.1 mph - N/A Rain Light Rain
11:15 PM 37.4 °F 29.8 °F 35.6 °F 93% 29.97 in 7.0 mi East 11.5 mph - N/A Rain Rain
11:35 PM 35.6 °F 27.5 °F 35.6 °F 100% 29.94 in 10.0 mi East 11.5 mph - N/A Rain Light Rain
11:55 PM 35.6 °F 29.9 °F 33.8 °F 93% 29.95 in 10.0 mi ESE 6.9 mph - N/A   Mostly Cloudy